RH
45 56 93 91 91 92 92 92 92 92 90 89 88 88 88 86 85 86 85 85 81 76 76 77 77 76 76 77 78 78 78 78 79 76 75 72 66 65 71 76 79 39 77
46 56 93 92 92 92 92 92 92 91 90 87 88 88 88 88 86 84 84 83 78 75 74 76 75 74 74 75 76 76 77 78 79 77 75 69 71 66 68 76 81 57 78
50 54 63 93 91 91 90 90 90 88 85 84 84 85 84 82 82 82 81 81 75 74 72 71 70 71 74 76 76 73 73 73 75 76 72 33 44 68 67 76 80 76 74
53 49 57 95 92 92 91 90 88 85 85 85 82 80 80 79 79 79 81 81 75 72 68 68 71 74 75 71 69 68 68 70 70 73 36 35 36 74 69 71 73 74 74
52 50 64 94 94 94 92 91 90 89 89 88 85 81 81 81 82 84 82 83 73 68 67 68 69 70 70 72 73 73 72 71 70 52 33 43 39 64 71 71 63 70 79
51 51 82 96 95 93 93 92 92 91 90 89 89 84 81 77 76 80 81 78 71 67 66 66 68 69 72 75 76 76 76 74 76 28 33 47 47 72 72 75 77 78 83
47 54 66 96 96 93 92 92 92 91 91 91 90 86 78 75 76 79 80 77 72 69 67 67 67 69 73 76 77 78 80 78 29 27 29 34 52 72 68 72 75 76 75
55 58 65 92 95 94 94 93 92 92 92 92 90 86 80 80 80 79 78 76 74 73 72 71 72 73 74 76 78 81 80 78 31 26 25 28 69 66 62 68 76 77 73
53 54 57 60 79 95 94 93 93 93 92 90 88 88 86 86 86 83 81 76 74 74 73 72 74 77 78 79 79 81 77 76 30 25 22 24 69 63 56 60 68 73 72
56 50 49 51 52 57 64 94 94 93 90 88 87 86 86 84 83 82 80 78 74 75 75 76 79 82 82 81 82 80 76 74 30 26 24 36 71 64 59 59 62 67 70
56 57 51 45 51 51 47 66 85 87 86 86 80 85 81 44 48 53 77 78 75 76 78 80 81 80 80 77 76 77 76 29 31 28 26 74 72 66 64 64 70 72 72
57 47 46 50 51 48 37 50 51 46 41 46 48 54 44 53 50 50 68 78 76 76 77 76 77 75 69 31 31 52 30 36 30 31 29 76 70 66 65 66 68 71 72
37 37 44 53 55 49 47 42 38 38 44 50 57 54 55 52 52 49 54 46 49 65 38 42 42 35 45 40 37 40 36 34 30 29 42 73 69 66 66 66 67 67 70
31 38 44 51 56 56 43 40 44 42 46 47 50 60 57 67 63 60 50 54 53 41 45 42 38 49 46 43 41 40 40 35 29 28 36 74 73 70 67 67 68 68 69
30 37 44 51 53 54 55 50 51 53 48 53 49 54 55 58 67 59 59 49 47 43 42 44 42 40 42 40 39 39 36 36 35 28 29 74 74 74 70 70 72 74 74
28 38 47 50 53 52 52 58 55 56 52 54 57 63 73 75 81 74 62 51 45 43 41 42 44 40 38 39 36 38 38 36 34 36 30 32 78 76 71 70 69 69 70
29 37 49 53 53 54 53 51 51 52 52 52 62 72 72 73 74 71 62 50 48 47 49 42 42 38 36 35 37 37 34 35 32 36 35 33 39 73 62 65 66 65 65
28 40 48 57 60 63 63 57 59 64 78 84 74 73 77 76 73 61 51 59 50 44 42 40 39 38 36 36 36 34 32 32 32 32 33 37 33 31 48 57 59 60 62
33 42 56 68 73 84 90 95 96 96 89 72 64 59 64 60 56 53 49 47 44 40 42 41 41 43 40 36 32 27 27 27 25 20 33 40 42 39 36 50 49 51 53
47 53 63 73 84 93 98 99 97 85 59 53 47 43 44 43 45 42 42 46 41 41 42 44 46 39 38 34 30 26 30 28 27 31 34 33 35 40 37 40 36 32 47
62 66 70 76 82 92 91 80 64 50 46 42 34 40 40 40 43 46 39 43 44 46 49 47 41 40 35 36 40 30 28 29 43 35 34 33 36 35 37 34 34 32 32
63 66 66 64 66 60 54 43 40 39 34 33 36 44 43 46 46 43 48 44 46 39 43 45 45 40 35 35 46 44 31 26 24 34 35 36 42 38 34 36 40 39 37
65 61 54 54 55 49 42 40 41 41 38 36 38 37 43 46 46 48 48 44 43 40 36 43 43 46 41 37 41 47 45 38 41 31 34 32 40 36 37 36 39 39 40
49 47 43 46 43 44 44 38 38 32 33 39 40 40 38 48 47 43 42 42 43 41 44 40 35 48 45 43 36 33 43 47 57 49 35 31 31 31 36 35 37 39 40
43 43 41 38 38 42 44 41 40 42 42 40 40 44 46 44 44 39 39 43 44 40 42 48 50 49 44 44 41 41 43 42 42 53 58 40 33 31 31 32 35 37 39
49 49 47 42 42 44 44 46 47 48 42 35 34 34 31 31 32 36 36 42 44 45 48 48 50 50 50 49 45 51 57 64 66 68 72 66 56 39 35 36 47 49 44
Wind_Speed
13 15 10 10 10 10 9 11 12 12 13 13 13 12 11 11 11 11 11 11 10 11 11 11 12 12 13 13 12 12 13 12 11 10 8 7 10 10 11 11 15 13 10
15 16 11 11 11 11 10 11 12 11 13 13 13 12 11 11 11 12 11 10 11 11 12 12 12 12 12 12 12 12 12 12 11 10 6 7 10 10 10 10 11 11 10
14 15 17 12 13 12 12 12 12 13 14 14 13 12 11 11 11 11 10 10 11 11 10 10 11 12 12 12 12 12 12 11 9 8 9 4 12 9 10 9 9 10 10
14 14 17 12 13 13 12 12 11 13 13 12 12 12 11 11 9 9 9 9 10 10 10 10 11 11 11 10 11 11 11 10 8 10 1 6 9 11 11 11 9 12 13
13 12 15 12 12 13 12 11 11 11 11 11 10 11 11 10 10 10 10 10 10 10 10 11 11 10 10 10 11 12 12 10 8 8 7 8 8 11 11 11 10 11 11
12 12 14 10 12 12 12 12 11 10 10 10 9 10 10 10 10 10 10 9 10 10 10 10 9 9 9 10 11 11 11 11 16 8 7 7 10 10 12 11 9 9 10
12 13 14 8 10 12 13 12 10 9 9 9 9 9 10 10 10 9 9 10 10 10 9 9 8 9 9 9 10 10 10 11 9 8 7 7 12 12 11 10 9 10 11
13 12 13 10 10 10 11 10 9 9 8 8 9 9 9 9 9 9 9 9 8 9 8 8 8 8 7 8 9 10 9 11 5 7 7 7 12 12 11 10 8 9 9
13 12 12 12 11 9 10 9 9 8 7 7 8 8 8 8 7 8 8 9 7 7 7 6 6 6 7 7 7 8 7 9 7 6 6 8 13 12 12 11 10 9 8
10 11 10 10 10 9 10 7 7 6 7 8 8 8 8 8 7 6 7 7 6 5 5 5 5 5 5 5 6 6 5 10 8 7 5 8 12 13 13 12 10 9 8
9 9 9 8 7 7 7 8 7 6 6 7 8 7 7 4 6 7 9 4 4 3 4 5 4 3 1 5 4 3 10 5 7 5 5 11 11 13 13 13 11 11 9
12 11 9 7 7 6 5 7 6 6 5 5 5 5 3 2 2 5 3 1 1 1 3 2 1 4 8 3 1 6 4 6 5 6 4 11 12 12 12 12 13 12 12
12 8 8 8 7 6 6 4 4 4 4 4 4 2 3 1 1 2 2 3 2 1 3 3 3 2 4 5 4 4 5 6 4 5 5 9 11 13 14 13 13 13 13
12 11 9 8 7 5 5 4 4 3 3 2 2 1 2 2 2 3 3 3 3 3 3 2 1 3 3 3 4 5 5 6 5 6 4 9 10 11 12 13 13 13 13
10 10 10 9 8 7 5 4 3 1 1 2 2 1 3 3 3 3 4 3 3 3 3 3 2 3 3 4 5 6 7 7 7 6 6 9 7 9 8 9 10 11 13
9 9 9 9 7 7 6 5 4 4 5 4 4 5 5 2 1 2 2 2 2 3 3 3 5 5 5 6 6 7 9 9 9 8 8 5 10 7 9 10 10 11 12
8 10 10 9 7 7 9 9 8 8 7 5 3 2 2 1 3 3 1 1 3 3 2 3 5 5 6 7 9 9 10 11 10 9 9 8 3 10 6 9 12 12 13
7 10 11 10 10 10 11 9 8 7 4 5 3 4 5 2 4 3 3 4 2 4 5 5 5 6 7 8 9 10 10 11 11 11 8 6 6 7 5 9 11 12 12
8 10 13 14 13 10 6 6 2 7 1 1 2 4 7 6 7 5 4 4 3 2 4 5 6 6 8 9 9 10 10 10 11 9 7 6 5 6 6 7 7 10 9
10 12 14 12 13 9 4 4 2 2 4 4 3 5 6 5 5 3 4 4 4 4 5 6 7 7 9 8 9 11 9 10 11 7 6 5 4 6 7 9 9 7 3
11 13 14 14 11 7 3 4 5 7 6 4 5 6 5 5 5 4 3 4 5 5 6 6 7 9 8 8 9 9 10 9 6 5 5 6 7 8 8 8 7 8 8
11 12 12 12 11 9 6 7 6 6 4 4 4 5 6 5 5 4 4 4 5 6 6 7 8 8 8 7 8 11 10 9 9 3 4 5 8 9 10 10 10 10 9
12 11 10 10 10 8 8 6 5 4 4 3 3 3 4 4 4 4 3 4 5 5 6 7 7 9 8 8 7 7 8 10 12 10 6 8 9 9 9 9 10 9 10
11 10 10 10 11 9 8 6 6 2 2 4 2 3 2 3 1 2 3 3 5 5 6 6 6 7 7 9 7 7 8 9 7 8 10 10 9 8 10 9 10 10 9
10 9 8 8 7 7 5 5 4 4 4 3 2 2 3 3 3 3 4 5 6 6 6 6 7 7 7 7 8 8 8 8 9 7 10 10 12 11 11 11 11 10 11
7 7 7 8 8 6 6 6 6 6 4 1 2 4 3 4 4 4 7 7 7 7 7 6 7 8 8 9 9 9 7 6 8 8 10 11 12 12 12 13 7 9 12
Wind_Direction
148 135 143 134 120 109 104 102 99 104 108 109 108 104 101 100 99 98 93 87 84 78 69 62 58 53 47 43 41 36 32 28 24 19 28 58 53 50 40 24 344 54 42
136 144 143 132 125 117 118 108 109 115 114 111 107 107 101 99 93 90 84 81 77 70 66 60 56 53 48 42 39 38 35 29 16 6 342 150 73 54 49 40 28 44 38
136 136 153 130 128 129 125 122 128 125 121 119 116 109 101 94 90 88 87 79 77 74 74 70 64 58 52 44 40 33 32 29 12 342 303 58 75 45 42 39 39 41 34
137 147 144 133 132 135 133 133 130 127 124 121 118 113 108 101 96 95 91 80 82 79 76 73 69 63 57 48 40 31 27 25 354 304 358 358 92 48 33 21 37 38 14
136 140 123 132 134 136 131 126 123 125 124 118 115 110 105 100 97 93 84 80 85 85 81 74 71 63 53 44 35 26 21 8 311 288 30 24 16 46 28 24 29 35 30
136 134 128 131 133 133 125 126 129 126 115 105 103 108 103 102 103 98 93 91 88 83 81 77 68 58 48 38 32 23 19 354 306 33 37 98 55 38 51 51 45 31 25
130 127 144 126 122 128 129 130 121 116 107 105 110 104 108 109 102 95 93 90 91 87 78 74 66 60 51 40 35 26 9 344 357 28 27 37 45 18 34 42 38 27 19
136 137 130 124 125 128 124 121 118 112 119 122 113 111 113 105 103 102 100 99 96 91 84 75 69 61 48 42 33 23 10 344 17 29 13 50 23 12 11 13 23 23 14
139 140 145 148 138 119 114 120 122 131 127 116 110 106 106 103 102 99 92 94 98 92 83 72 59 52 45 38 34 22 2 327 349 21 2 35 10 2 2 358 355 357 1
141 149 146 150 152 152 142 123 136 133 128 122 113 112 111 113 110 113 131 94 89 86 84 74 50 34 52 56 36 16 305 264 16 359 21 35 357 351 352 353 348 341 336
147 145 153 146 144 133 139 129 143 129 112 117 128 121 169 144 153 177 69 97 94 79 60 53 59 28 279 150 101 334 275 22 341 1 351 27 351 341 339 336 334 328 323
163 158 142 140 127 142 137 146 141 138 153 141 152 163 177 128 52 357 82 72 125 61 117 92 81 239 244 325 42 219 359 349 314 323 18 25 353 344 336 327 322 320 320
161 136 142 132 131 149 124 143 148 153 157 152 157 193 99 259 223 267 287 226 259 217 255 230 221 347 1 328 354 345 336 308 337 323 17 36 353 341 335 332 329 323 319
158 149 137 128 132 115 130 137 137 158 153 162 133 222 255 252 336 323 311 295 260 322 325 316 351 355 341 358 349 330 326 318 329 314 334 61 3 340 334 333 332 330 329
157 147 145 141 138 128 127 120 111 99 93 24 253 257 296 296 354 337 358 315 333 320 329 319 335 333 323 321 332 324 318 312 310 303 309 98 48 4 0 357 356 353 351
160 154 147 149 141 143 117 92 84 55 36 355 338 342 334 347 114 21 336 316 359 346 2 346 350 330 326 326 317 323 312 306 312 310 311 300 104 64 30 24 14 5 357
167 152 155 143 136 118 108 86 68 45 32 29 35 92 96 132 108 113 211 64 27 30 326 333 336 339 323 315 307 294 300 303 303 307 300 302 220 135 78 23 9 3 358
180 163 143 134 110 97 88 67 70 59 47 6 350 41 62 66 101 108 94 81 70 19 16 342 341 330 324 314 306 302 306 301 301 296 286 301 317 307 159 54 356 347 351
176 156 148 142 127 105 78 4 70 52 49 174 48 96 89 86 80 100 91 73 15 1 4 349 340 337 320 311 309 308 303 292 299 295 290 279 295 311 328 13 338 310 352
151 152 151 139 133 137 133 109 342 160 135 133 131 99 87 88 90 93 86 65 356 355 353 358 341 329 315 315 313 304 296 295 293 283 278 267 300 313 315 328 326 326 322
140 149 159 157 153 162 143 135 189 167 157 128 107 96 97 86 82 52 48 24 1 2 353 341 333 327 320 323 311 310 298 276 276 281 279 309 323 310 314 333 322 330 322
149 152 154 158 178 183 180 161 152 153 133 114 110 91 71 62 50 50 23 13 360 337 338 338 331 323 314 334 313 310 306 301 259 272 292 297 315 314 315 325 323 320 318
144 153 164 163 163 161 131 128 128 126 137 162 143 137 81 73 50 32 20 357 337 323 329 327 333 323 321 316 320 304 311 316 333 299 274 296 308 314 310 314 314 315 310
124 135 144 152 152 149 163 157 166 225 219 57 73 88 78 38 5 333 329 320 319 319 312 316 326 318 314 313 314 302 299 305 295 307 317 300 281 291 305 303 312 308 303
128 127 126 122 112 121 128 144 152 121 113 107 66 341 301 260 283 295 284 287 289 290 309 309 305 308 303 303 305 303 291 290 281 289 292 301 310 314 311 305 314 308 295
132 136 139 137 128 126 121 117 106 105 84 25 344 305 314 313 313 284 290 281 285 292 282 285 287 283 288 294 293 302 296 294 299 293 289 305 296 300 305 313 295 307 305